FW6296 Weather Reports


Display with metric or nautical units.
time (UTC)temp
F
wind
direction
speed
MPH
gust
MPH
rain 1hr
in
rain 24hr
in
rain mn
in
humidity
%
barometer
mb
20260504045027 53 0.0 0.0 0.00 0.28 0.28 78 1006.5
20260504044027 53 84 1.0 2.0 0.00 0.28 0.28 78 1006.5
20260504043028 53 120 0.0 1.0 0.00 0.28 0.28 77 1006.6
20260504042028 53 89 0.0 1.0 0.00 0.28 0.28 76 1006.7
20260504041048 54 159 0.0 1.0 0.00 0.28 0.28 75 1006.8
20260504040037 54 87 0.0 1.0 0.00 0.28 0.28 74 1006.9
20260504035017 55 95 0.0 2.0 0.00 0.28 0.28 73 1006.9
20260504034018 55 337 0.0 2.0 0.00 0.28 0.28 73 1007.0
20260504033018 56 111 0.0 2.0 0.00 0.28 0.28 72 1007.1
20260504032018 57 0.0 0.0 0.00 0.28 0.28 70 1007.2
20260504031015 58 84 0.0 2.0 0.00 0.28 0.28 69 1007.3
20260504030035 59 72 0.0 2.0 0.00 0.28 0.28 67 1007.3
20260504025016 59 321 0.0 2.0 0.00 0.28 0.28 65 1007.2
20260504024016 60 270 0.0 3.0 0.00 0.28 0.28 64 1007.2
20260504023016 60 283 0.0 3.0 0.00 0.28 0.28 63 1007.1
20260504022016 60 267 1.0 3.0 0.00 0.28 0.28 62 1007.0
20260504021016 60 271 1.0 4.0 0.00 0.28 0.28 62 1006.9
20260504020016 61 270 1.0 4.0 0.00 0.28 0.28 61 1006.9
20260504015017 61 254 1.0 3.0 0.00 0.28 0.28 61 1006.7
20260504014017 61 282 1.0 4.0 0.00 0.28 0.28 60 1006.7
20260504013017 61 307 0.0 2.0 0.00 0.28 0.28 61 1006.8
20260504012017 62 285 1.0 4.0 0.00 0.28 0.28 59 1006.7
20260504011017 62 276 2.0 4.0 0.00 0.28 0.28 58 1006.6
20260504010038 63 280 1.0 4.0 0.00 0.28 0.28 57 1006.6
20260504005018 64 276 1.0 4.0 0.00 0.28 0.28 57 1006.6
20260504004015 64 289 1.0 3.0 0.00 0.28 0.28 56 1006.7
20260504003015 65 293 1.0 5.0 0.00 0.28 0.28 54 1006.7
20260504002016 66 297 2.0 4.0 0.00 0.28 0.28 54 1006.7
20260504001016 66 301 3.0 7.0 0.00 0.28 0.28 52 1006.7
20260504000016 67 285 2.0 5.0 0.00 0.28 0.28 51 1006.8
20260503235016 67 291 3.0 7.0 0.00 0.28 0.28 51 1006.8
20260503234036 68 283 3.0 10.0 0.00 0.28 0.28 49 1006.7
20260503233017 68 285 5.0 11.0 0.00 0.28 0.28 48 1006.7
20260503232017 69 292 4.0 7.0 0.00 0.28 0.28 48 1006.7
20260503231017 69 280 4.0 9.0 0.00 0.28 0.28 47 1006.8
20260503230017 69 288 4.0 11.0 0.00 0.28 0.28 47 1006.9
20260503225037 69 291 4.0 10.0 0.00 0.28 0.28 48 1007.0
20260503224017 67 270 2.0 6.0 0.00 0.28 0.28 49 1007.1
20260503223017 66 275 2.0 5.0 0.00 0.28 0.28 50 1007.2
20260503222018 66 274 2.0 5.0 0.00 0.28 0.28 50 1007.3
20260503221017 66 222 1.0 6.0 0.00 0.28 0.28 49 1007.4
20260503220018 66 263 2.0 11.0 0.00 0.28 0.28 49 1007.5
20260503215059 67 249 2.0 6.0 0.00 0.28 0.28 48 1007.5
20260503214015 67 271 3.0 7.0 0.00 0.28 0.28 47 1007.7
20260503213016 67 266 2.0 7.0 0.00 0.28 0.28 48 1007.8
20260503212016 67 257 3.0 6.0 0.00 0.28 0.28 47 1008.0
20260503211016 66 285 3.0 5.0 0.00 0.28 0.28 48 1008.2
20260503210016 65 282 2.0 6.0 0.00 0.28 0.28 49 1008.4
20260503205037 65 274 2.0 6.0 0.00 0.28 0.28 48 1008.5
20260503204016 65 269 3.0 7.0 0.00 0.28 0.28 47 1008.6
20260503203017 64 270 4.0 10.0 0.00 0.28 0.28 47 1008.8
20260503202017 65 275 3.0 7.0 0.00 0.28 0.28 47 1009.0
20260503201017 65 275 3.0 8.0 0.00 0.28 0.28 47 1009.0
20260503200017 64 267 3.0 9.0 0.00 0.28 0.28 48 1009.1
20260503195058 65 259 4.0 10.0 0.00 0.28 0.28 47 1009.2
20260503194018 66 258 4.0 9.0 0.00 0.28 0.28 47 1009.4
20260503193018 65 269 2.0 7.0 0.00 0.28 0.28 49 1009.6
20260503192018 64 257 2.0 6.0 0.00 0.28 0.28 51 1009.7
20260503191018 64 259 3.0 9.0 0.00 0.28 0.28 52 1009.9
20260503190015 63 250 2.0 6.0 0.00 0.28 0.28 55 1010.1
20260503185016 62 257 2.0 7.0 0.00 0.28 0.28 56 1010.3
20260503184016 61 245 3.0 10.0 0.00 0.28 0.28 60 1010.6
20260503183015 59 349 1.0 5.0 0.00 0.28 0.28 67 1010.8
20260503182016 57 64 2.0 5.0 0.00 0.28 0.28 70 1011.0
20260503181025 54 172 2.0 5.0 0.00 0.28 0.28 75 1011.4
20260503180026 52 281 1.0 3.0 0.03 0.28 0.28 76 1011.7
20260503175026 51 102 1.0 4.0 0.03 0.28 0.28 78 1012.2
20260503174026 51 298 1.0 3.0 0.04 0.28 0.28 77 1012.7
20260503173028 51 16 1.0 3.0 0.05 0.28 0.28 80 1013.3
20260503172026 51 48 1.0 2.0 0.05 0.28 0.28 82 1013.5
20260503171026 51 106 1.0 3.0 0.05 0.27 0.27 81 1013.5
20260503131016 50 52 2.0 3.0 0.00 0.00 0.00 64 1015.1
20260503081021 42 51 1.0 2.0 0.00 0.00 0.00 71 1015.4
20260503072022 42 47 1.0 2.0 0.00 0.00 0.00 69 1015.3
20260503071016 43 241 2.0 6.0 0.00 0.00 0.00 68 1015.4